This demonstration page uses our WeatherBlox Daily Observations layout. Learn more.

Left ArrowRight Arrow

Hourly Observations for October 12, 2020

Temp ( °F °C ) Dew Point ( °F °C ) Humidity (%) Winds ( mph kmh ) Pressure ( in mb ) Visibility ( mi km ) Precip ( " mm )
12:54 am 00:54 Cloudy 56 13.3 45 7.2 67 67 NW 13 20 29.8 1009 10 16.0934 0 0
1:54 am 01:54 Cloudy 56 13.3 43 6.1 62 62 NW 17 28 29.82 1010 10 16.0934 0 0
2:54 am 02:54 Cloudy with Light Rain 55 12.8 42 5.6 62 62 N 18 30 29.83 1010 10 16.0934 0.001 0.001
3:54 am 03:54 Mostly Clear 53 11.7 43 6.1 69 69 NW 9 15 29.85 1011 10 16.0934 0.001 0.001
4:54 am 04:54 Clear 50 10 42 5.6 74 74 WNW 10 17 29.87 1012 10 16.0934 0 0
5:54 am 05:54 Clear 49 9.4 41 5 74 74 WNW 7 11 29.91 1013 10 16.0934 0 0
6:54 am 06:54 Clear 49 9.4 39 3.9 69 69 NW 9 15 29.93 1014 10 16.0934 0 0
7:54 am 07:54 Sunny 49 9.4 37 2.8 64 64 WNW 12 19 29.96 1014 10 16.0934 0 0
8:54 am 08:54 Sunny 51 10.6 37 2.8 59 59 WNW 9 15 29.98 1015 10 16.0934 0 0
9:54 am 09:54 Sunny 54 12.2 37 2.8 53 53 NW 14 22 30.02 1017 10 16.0934 0 0
10:54 am 10:54 Sunny 59 15 38 3.3 46 46 WNW 10 17 30.03 1017 10 16.0934 0 0
11:54 am 11:54 Sunny 62 16.7 39 3.9 43 43 WNW 7 11 30.02 1017 10 16.0934 0 0
12:54 pm 12:54 Sunny 66 18.9 35 1.7 32 32 WSW 10 17 30.01 1016 10 16.0934 0 0
1:54 pm 13:54 Sunny 68 20 31 -0.6 25 25 W 10 17 29.97 1015 10 16.0934 0 0
2:54 pm 14:54 Sunny 69 20.6 31 -0.6 24 24 SSW 9 15 29.94 1014 10 16.0934 0 0
3:54 pm 15:54 Sunny 70 21.1 29 -1.7 22 22 W 12 19 29.93 1014 10 16.0934 0 0
4:54 pm 16:54 Sunny 71 21.7 28 -2.2 20 20 SW 13 20 29.92 1013 10 16.0934 0 0
5:54 pm 17:54 Sunny 69 20.6 31 -0.6 24 24 S 9 15 29.9 1013 10 16.0934 0 0
6:54 pm 18:54 Clear 58 14.4 34 1.1 41 41 S 9 15 29.9 1013 10 16.0934 0 0
7:54 pm 19:54 Clear 54 12.2 35 1.7 49 49 S 12 19 29.91 1013 10 16.0934 0 0
8:54 pm 20:54 Clear 51 10.6 36 2.2 56 56 S 9 15 29.91 1013 10 16.0934 0 0
9:54 pm 21:54 Clear 50 10 35 1.7 57 57 S 9 15 29.92 1013 10 16.0934 0 0
10:54 pm 22:54 Clear 50 10 34 1.1 54 54 S 12 19 29.92 1013 10 16.0934 0 0
11:54 pm 23:54 Clear 55 12.8 34 1.1 45 45 S 12 19 29.91 1013 10 16.0934 0 0

Powered by AerisWeather